Tracking 19709 objects as of 18-Jun-2019
HD Live streaming from Space Station
objects crossing your sky now

SL-12 R/B(AUX MOTOR)

Track SL-12 R/B(AUX MOTOR) now!
10-day predictions


NORAD ID: 16446
Int'l Code: 1985-118L
Perigee: 449.5 km
Apogee: 18,269.8 km
Inclination: 64.9 °
Period: 327.2 minutes
Semi major axis: 15730 km
RCS: 0.6158 m2 (medium)
Launch date: December 24, 1985
Source: Commonwealth of Independent States (former USSR) (CIS)
Launch site: TYURATAM MISSILE AND SPACE COMPLEX (TTMTR)

Note: This is a ROCKET BODY
aabbcc
Your satellite tracking list
Your tracking list is empty




NASA's NSSDC Master Catalog

Two Line Element Set (TLE):
1 16446U 85118L   19168.64565548  .00000135  00000-0  69112-4 0  9994
2 16446  64.9296 216.2256 5664200 140.0202 279.8002  4.40030850525447
Source of the keplerian elements: AFSPC